Kremmling, CO

3:38 AM MST on November 23, 2017 (GMT -0700)
Kremmling

Weather History for K20V - June, 2013

Change the Weather History Date:

Tuesday, June 25, 2013

  Actual Average Record
Temperature  
Mean Temperature 61 °F -  
Max Temperature 78 °F - 95 °F (2012)
Min Temperature 44 °F - 33 °F (2008)
Degree Days  
Heating Degree Days 4    
Month to date heating degree days  
Growing Degree Days 11 (Base 50)    
Moisture  
Dew Point 29 °F    
Average Humidity 29    
Maximum Humidity 57    
Minimum Humidity 14    
Precipitation  
Precipitation 0.00 in - 0.21 in (2004)
Sea Level Pressure  
Sea Level Pressure 30.16 in    
Wind  
Wind Speed 4 mph (West)    
Max Wind Speed 15 mph    
Max Gust Speed 24 mph    
Visibility 10 miles    
Events      
T = Trace of Precipitation, MM = Missing Value Source: NWS Daily Summary

Daily Weather History Graph

Daily Weather History Graph

Search for Another Location

Airport or City:

Trip Planner

Search our weather history database for the weather conditions in past years. The results will help you decide how hot, cold, wet, or windy it might be!

Date:

Astronomy

Jun. 25, 2013 Rise Set
Actual Time 5:37 AM MDT 8:38 PM MDT
Civil Twilight 5:04 AM MDT 9:11 PM MDT
Nautical Twilight 4:23 AM MDT 9:53 PM MDT
Astronomical Twilight 3:34 AM MDT 10:41 PM MDT
Moon 10:25 PM MDT (6/25) 8:21 AM MDT (6/25)
Length of Visible Light 16h 06m
Length of Day
15h 00m
Waning Gibbous, 92% of the Moon is Illuminated
Jun 25
Waning Gibbous
Jun 29
Last Quarter
Jul 8
New
Jul 15
First Quarter
Jul 22
Full

Hourly Weather History & Observations

Time (MDT) Temp. Windchill Dew Point Humidity Pressure Visibility Wind Dir Wind Speed Gust Speed Precip Events Conditions
12:16 AM 60.8 °F - 19.4 °F 20% 30.07 in 10.0 mi South 3.5 mph - N/A   Mostly Cloudy
12:36 AM 62.6 °F - 19.4 °F 19% 30.07 in 10.0 mi NNE 3.5 mph - N/A   Overcast
12:56 AM 62.6 °F - 19.4 °F 19% 30.08 in 10.0 mi West 3.5 mph - N/A   Overcast
1:16 AM 62.6 °F - 19.4 °F 19% 30.08 in 10.0 mi Calm Calm - N/A   Overcast
1:36 AM 59.0 °F - 19.4 °F 22% 30.07 in 10.0 mi Calm Calm - N/A   Scattered Clouds
1:56 AM 59.0 °F - 21.2 °F 23% 30.06 in 10.0 mi Calm Calm - N/A   Clear
2:16 AM 59.0 °F - 21.2 °F 23% 30.07 in 10.0 mi Calm Calm - N/A   Clear
2:36 AM 53.6 °F - 23.0 °F 30% 30.07 in 10.0 mi Calm Calm - N/A   Clear
2:56 AM 55.4 °F - 24.8 °F 31% 30.07 in 10.0 mi Calm Calm - N/A   Clear
3:16 AM 53.6 °F - 28.4 °F 38% 30.07 in 10.0 mi Calm Calm - N/A   Clear
3:36 AM 50.0 °F - 26.6 °F 40% 30.07 in 10.0 mi Calm Calm - N/A   Clear
3:56 AM 50.0 °F - 28.4 °F 43% 30.08 in 10.0 mi Calm Calm - N/A   Clear
4:15 AM 50.0 °F - 28.4 °F 43% 30.09 in 10.0 mi Calm Calm - N/A   Clear
4:36 AM 50.0 °F - 30.2 °F 47% 30.09 in 10.0 mi Calm Calm - N/A   Clear
4:56 AM 50.0 °F - 32.0 °F 50% 30.11 in 10.0 mi NNW 4.6 mph - N/A   Mostly Cloudy
5:16 AM 50.0 °F - 32.0 °F 50% 30.11 in 10.0 mi SE 3.5 mph - N/A   Mostly Cloudy
5:36 AM 46.4 °F - 32.0 °F 57% 30.12 in 10.0 mi Calm Calm - N/A   Scattered Clouds
5:56 AM 44.6 °F 42.2 °F 30.2 °F 57% 30.13 in 10.0 mi SE 4.6 mph - N/A   Clear
6:16 AM 46.4 °F - 32.0 °F 57% 30.14 in 10.0 mi Calm Calm - N/A   Clear
6:35 AM 50.0 °F - 32.0 °F 50% 30.14 in 10.0 mi Calm Calm - N/A   Clear
6:56 AM 53.6 °F - 32.0 °F 44% 30.14 in 10.0 mi Calm Calm - N/A   Clear
7:16 AM 55.4 °F - 35.6 °F 47% 30.14 in 10.0 mi Calm Calm - N/A   Scattered Clouds
7:36 AM 59.0 °F - 32.0 °F 36% 30.15 in 10.0 mi Calm Calm - N/A   Mostly Cloudy
7:56 AM 60.8 °F - 30.2 °F 31% 30.16 in 10.0 mi Calm Calm - N/A   Scattered Clouds
8:16 AM 62.6 °F - 30.2 °F 30% 30.16 in 10.0 mi SE 4.6 mph - N/A   Clear
8:36 AM 64.4 °F - 30.2 °F 28% 30.17 in 10.0 mi South 3.5 mph - N/A   Clear
8:55 AM 66.2 °F - 30.2 °F 26% 30.17 in 10.0 mi West 4.6 mph - N/A   Clear
9:16 AM 68.0 °F - 30.2 °F 24% 30.17 in 10.0 mi NW 5.8 mph - N/A   Clear
9:36 AM 69.8 °F - 30.2 °F 23% 30.17 in 10.0 mi SSW 4.6 mph - N/A   Clear
9:56 AM 69.8 °F - 28.4 °F 21% 30.17 in 10.0 mi WSW 9.2 mph - N/A   Clear
10:16 AM 69.8 °F - 26.6 °F 20% 30.16 in 10.0 mi SW 9.2 mph 17.3 mph N/A   Scattered Clouds
10:36 AM 73.4 °F - 28.4 °F 19% 30.16 in 10.0 mi WSW 15.0 mph 19.6 mph N/A   Mostly Cloudy
10:56 AM 69.8 °F - 28.4 °F 21% 30.16 in 10.0 mi West 5.8 mph - N/A   Mostly Cloudy
11:16 AM 71.6 °F - 28.4 °F 20% 30.17 in 10.0 mi WSW 8.1 mph - N/A   Mostly Cloudy
11:36 AM 73.4 °F - 30.2 °F 20% 30.17 in 10.0 mi NNW 9.2 mph 20.7 mph N/A   Mostly Cloudy
11:56 AM 73.4 °F - 30.2 °F 20% 30.17 in 10.0 mi WNW 9.2 mph 16.1 mph N/A   Mostly Cloudy
12:16 PM 73.4 °F - 28.4 °F 19% 30.16 in 10.0 mi West 12.7 mph 17.3 mph N/A   Mostly Cloudy
12:36 PM 75.2 °F - 28.4 °F 18% 30.17 in 10.0 mi WNW 9.2 mph 18.4 mph N/A   Mostly Cloudy
12:56 PM 73.4 °F - 24.8 °F 16% 30.16 in 10.0 mi SW 4.6 mph 17.3 mph N/A   Overcast
1:15 PM 73.4 °F - 28.4 °F 19% 30.17 in 10.0 mi WNW 11.5 mph 19.6 mph N/A   Mostly Cloudy
1:36 PM 75.2 °F - 28.4 °F 18% 30.17 in 10.0 mi NW 8.1 mph 12.7 mph N/A   Overcast
1:55 PM 75.2 °F - 30.2 °F 19% 30.17 in 10.0 mi WNW 9.2 mph 23.0 mph N/A   Mostly Cloudy
2:16 PM 77.0 °F - 28.4 °F 17% 30.17 in 10.0 mi NW 8.1 mph 16.1 mph N/A   Mostly Cloudy
2:35 PM 77.0 °F - 28.4 °F 17% 30.18 in 10.0 mi WNW 12.7 mph 18.4 mph N/A   Overcast
2:56 PM 78.8 °F - 28.4 °F 16% 30.18 in 10.0 mi WSW 10.4 mph - N/A   Mostly Cloudy
3:16 PM 78.8 °F - 28.4 °F 16% 30.18 in 10.0 mi West 12.7 mph - N/A   Scattered Clouds
3:36 PM 78.8 °F - 28.4 °F 16% 30.17 in 10.0 mi WNW 3.5 mph 9.2 mph N/A   Mostly Cloudy
3:56 PM 77.0 °F - 28.4 °F 17% 30.17 in 10.0 mi WNW 6.9 mph 16.1 mph N/A   Overcast
4:16 PM 78.8 °F - 26.6 °F 15% 30.17 in 10.0 mi WSW 12.7 mph 24.2 mph N/A   Overcast
4:36 PM 77.0 °F - 26.6 °F 16% 30.18 in 10.0 mi WSW 12.7 mph 20.7 mph N/A   Overcast
4:56 PM 77.0 °F - 26.6 °F 16% 30.17 in 10.0 mi WSW 10.4 mph - N/A   Overcast
5:16 PM 77.0 °F - 26.6 °F 16% 30.17 in 10.0 mi West 11.5 mph 18.4 mph N/A   Overcast
5:36 PM 77.0 °F - 24.8 °F 14% 30.18 in 10.0 mi WSW 11.5 mph 20.7 mph N/A   Mostly Cloudy
5:56 PM 77.0 °F - 30.2 °F 18% 30.18 in 10.0 mi WSW 5.8 mph - N/A   Mostly Cloudy
6:16 PM 75.2 °F - 28.4 °F 18% 30.18 in 10.0 mi WNW 4.6 mph - N/A   Overcast
6:36 PM 75.2 °F - 28.4 °F 18% 30.18 in 10.0 mi Calm Calm - N/A   Overcast
6:56 PM 73.4 °F - 26.6 °F 18% 30.19 in 10.0 mi NW 3.5 mph - N/A   Mostly Cloudy
7:16 PM 77.0 °F - 26.6 °F 16% 30.19 in 10.0 mi WSW 4.6 mph - N/A   Scattered Clouds
7:36 PM 75.2 °F - 28.4 °F 18% 30.19 in 10.0 mi Calm Calm - N/A   Scattered Clouds
7:56 PM 73.4 °F - 28.4 °F 19% 30.20 in 10.0 mi West 6.9 mph - N/A   Clear
8:16 PM 71.6 °F - 24.8 °F 17% 30.21 in 10.0 mi West 4.6 mph - N/A   Clear
8:35 PM 69.8 °F - 30.2 °F 23% 30.21 in 10.0 mi North 3.5 mph - N/A   Clear
8:56 PM 64.4 °F - 32.0 °F 30% 30.22 in 10.0 mi Calm Calm - N/A   Clear
9:16 PM 60.8 °F - 32.0 °F 34% 30.23 in 10.0 mi Calm Calm - N/A   Clear
9:36 PM 59.0 °F - 32.0 °F 36% 30.24 in 10.0 mi Calm Calm - N/A   Clear
9:56 PM 59.0 °F - 32.0 °F 36% 30.25 in 10.0 mi Calm Calm - N/A   Clear
10:16 PM 59.0 °F - 37.4 °F 45% 30.26 in 10.0 mi Calm Calm - N/A   Clear
10:36 PM 53.6 °F - 37.4 °F 54% 30.27 in 10.0 mi Calm Calm - N/A   Clear
10:56 PM 53.6 °F - 35.6 °F 51% 30.27 in 10.0 mi East 3.5 mph - N/A   Clear
11:15 PM 53.6 °F - 35.6 °F 51% 30.27 in 10.0 mi ESE 3.5 mph - N/A   Clear
11:36 PM 51.8 °F - 33.8 °F 50% 30.28 in 10.0 mi Calm Calm - N/A   Clear
11:56 PM 50.0 °F - 33.8 °F 54% 30.28 in 10.0 mi Calm Calm - N/A   Clear